PDT,Max TemperatureF,Mean TemperatureF,Min TemperatureF,Max Dew PointF,MeanDew PointF,Min DewpointF,Max Humidity, Mean Humidity, Min Humidity, Max Sea Level PressureIn, Mean Sea Level PressureIn, Min Sea Level PressureIn, Max VisibilityMiles, Mean VisibilityMiles, Min VisibilityMiles, Max Wind SpeedMPH, Mean Wind SpeedMPH, Max Gust SpeedMPH,PrecipitationIn, CloudCover, Events, WindDirDegrees
2013-6-1,71,60,48,48,45,43,93,64,41,30.28,30.18,30.09,10,10,9,13,4,18,0.00,4,,30
2013-6-2,66,57,48,52,48,45,93,73,52,30.14,30.11,30.08,10,10,9,9,3,,0.10,6,,249
2013-6-3,71,58,44,52,48,39,100,78,38,30.17,30.13,30.09,10,8,0,8,3,,0.00,4,,212
2013-6-4,75,58,42,52,47,39,100,64,36,30.17,30.12,30.06,10,9,0,13,3,,0.00,0,,42
2013-6-5,75,60,46,54,50,43,93,66,44,30.13,30.10,30.07,10,10,10,12,3,16,0.00,0,,30
2013-6-6,78,62,46,54,50,45,94,65,39,30.10,30.07,30.05,10,10,9,13,3,,0.00,1,,38
2013-6-7,66,57,48,54,49,45,93,74,59,30.19,30.12,30.07,10,10,10,14,6,20,0.00,6,,171
2013-6-8,64,58,51,50,48,46,88,73,56,30.22,30.19,30.13,10,10,10,10,2,,0.00,8,,52
2013-6-9,62,54,46,48,46,43,93,74,55,30.16,30.12,30.06,10,10,10,13,2,18,0.00,6,,53
2013-6-10,66,54,42,46,44,39,93,66,46,30.08,30.00,29.92,10,10,10,16,3,18,0.00,5,,185
2013-6-11,64,56,48,46,43,39,87,67,42,30.14,30.05,29.98,10,10,10,22,9,29,0.00,4,,194
2013-6-12,64,54,44,48,45,41,93,73,48,30.19,30.16,30.13,10,10,2,18,8,23,0.00,4,,188
2013-6-13,64,56,48,54,47,45,93,73,52,30.25,30.21,30.17,10,10,8,9,3,,0.03,7,,169
2013-6-14,64,56,48,48,46,45,87,72,52,30.27,30.22,30.09,10,10,10,9,5,,0.00,6,,181
2013-6-15,73,60,46,50,47,43,87,64,41,30.09,30.00,29.96,10,10,9,12,7,16,0.00,0,,40
2013-6-16,73,60,46,55,50,45,94,73,50,30.13,30.09,30.03,10,9,1,13,4,17,0.00,2,,197
2013-6-17,73,60,48,52,49,45,94,72,38,30.14,30.05,29.96,10,10,10,18,4,23,0.04,5,Thunderstorm,194
2013-6-18,69,60,51,52,48,45,94,69,40,30.02,29.98,29.93,10,10,10,18,8,23,0.04,3,,190
2013-6-19,64,56,48,52,48,45,93,72,49,30.04,29.99,29.95,10,10,10,12,4,,0.00,7,,195
2013-6-20,64,56,48,50,48,45,94,78,52,30.14,30.04,29.97,10,10,10,18,6,24,0.05,5,,187
2013-6-21,66,58,50,52,49,46,94,76,49,30.20,30.17,30.13,10,10,5,7,2,,0.03,6,,41
2013-6-22,75,60,46,52,48,45,94,63,34,30.17,30.04,29.89,10,10,7,10,3,,0.00,1,,47
2013-6-23,68,62,57,61,55,48,94,77,59,29.88,29.77,29.65,10,10,7,10,5,,0.22,5,,5
2013-6-24,64,60,55,57,54,52,94,86,64,29.74,29.69,29.61,10,10,5,20,9,28,0.04,6,,190
2013-6-25,71,62,53,55,53,52,94,83,50,29.89,29.78,29.71,10,9,2,23,4,32,0.89,6,Thunderstorm,192
2013-6-26,68,62,55,59,55,52,94,84,64,30.11,29.99,29.88,10,9,3,14,4,24,0.17,7,,194
2013-6-27,64,60,55,63,58,54,94,90,83,30.24,30.17,30.09,10,9,2,9,1,,0.25,6,,201
2013-6-28,82,70,57,63,59,55,94,71,48,30.23,30.15,30.09,10,10,7,14,4,20,0.03,1,,110
2013-6-29,84,72,59,63,58,55,88,67,37,30.14,30.10,30.04,10,10,9,8,2,,0.00,0,,200
2013-6-30,93,74,55,64,58,52,88,61,34,30.06,29.98,29.90,10,10,10,12,3,,0.00,0,,39